When you browse on this site, cookies collect data to enhance your experience and personalize the content and advertising you see.
Visit our Privacy Policy to learn more. By continuing to use the site, you agree to this use of cookies and data.
  • Em Portugal
  • Lista de países
  • Para 7 dias
  • Temperatura da água
  • Mapa do tempo
  • Widgets de tempo
  • user-avatar
    Iniciar Sessão

    Previsão horária em Arakul

    Hoje, 22 Agosto, Quinta-feira

    Tempo Temperatura Precipitação Vento Pressão Humidade
    00:00 +13°C° 0 mm 1 m/s 587 mmHg 65%
    01:00 +13°C° 0 mm 1 m/s 586 mmHg 66%
    02:00 +13°C° 0 mm 1 m/s 586 mmHg 68%
    03:00 +13°C° 0 mm 1 m/s 586 mmHg 73%
    04:00 +13°C° 0 mm 1 m/s 586 mmHg 71%
    05:00 +14°C° 0 mm 1 m/s 587 mmHg 69%
    06:00 +14°C° 0 mm 1 m/s 587 mmHg 68%
    07:00 +18°C° 0 mm 1 m/s 588 mmHg 59%
    08:00 +20°C° 0 mm 1 m/s 589 mmHg 51%
    09:00 +21°C° 0 mm 2 m/s 590 mmHg 42%
    10:00 +23°C° 0 mm 2 m/s 590 mmHg 43%
    11:00 +24°C° 0 mm 2 m/s 590 mmHg 43%
    12:00 +24°C° 0 mm 3 m/s 590 mmHg 43%
    13:00 +24°C° 0.1 mm 3 m/s 590 mmHg 44%
    14:00 +24°C° 0.1 mm 3 m/s 590 mmHg 45%
    15:00 +23°C° 0.1 mm 2 m/s 589 mmHg 46%
    16:00 +21°C° 0.2 mm 2 m/s 589 mmHg 51%
    17:00 +21°C° 0.2 mm 1 m/s 588 mmHg 57%
    18:00 +19°C° 0.2 mm 1 m/s 587 mmHg 62%
    19:00 +18°C° 0 mm 1 m/s 587 mmHg 63%
    20:00 +15°C° 0 mm 1 m/s 586 mmHg 65%
    21:00 +14°C° 0 mm 1 m/s 586 mmHg 67%
    22:00 +14°C° 0 mm 1 m/s 586 mmHg 67%
    23:00 +13°C° 0 mm 1 m/s 586 mmHg 68%

    Amanhã, 23 Agosto, Sexta-feira

    Tempo Temperatura Precipitação Vento Pressão Humidade
    00:00 +13°C° 0 mm 1 m/s 586 mmHg 69%
    01:00 +13°C° 0 mm 1 m/s 586 mmHg 69%
    02:00 +12°C° 0 mm 1 m/s 586 mmHg 68%
    03:00 +12°C° 0 mm 1 m/s 586 mmHg 68%
    04:00 +13°C° 0 mm 1 m/s 586 mmHg 67%
    05:00 +13°C° 0 mm 1 m/s 586 mmHg 65%
    06:00 +14°C° 0 mm 1 m/s 586 mmHg 64%
    07:00 +16°C° 0 mm 1 m/s 588 mmHg 56%
    08:00 +19°C° 0 mm 1 m/s 589 mmHg 48%
    09:00 +21°C° 0 mm 2 m/s 590 mmHg 40%
    10:00 +21°C° 0 mm 2 m/s 590 mmHg 39%
    11:00 +22°C° 0 mm 3 m/s 590 mmHg 38%
    12:00 +24°C° 0 mm 3 m/s 590 mmHg 38%
    13:00 +24°C° 0 mm 3 m/s 590 mmHg 38%
    14:00 +24°C° 0 mm 3 m/s 590 mmHg 39%
    15:00 +24°C° 0 mm 3 m/s 590 mmHg 39%
    16:00 +21°C° 0 mm 2 m/s 589 mmHg 45%
    17:00 +20°C° 0 mm 2 m/s 588 mmHg 51%
    18:00 +19°C° 0 mm 1 m/s 588 mmHg 57%
    19:00 +18°C° 0 mm 1 m/s 587 mmHg 57%
    20:00 +15°C° 0 mm 1 m/s 587 mmHg 58%
    21:00 +14°C° 0 mm 1 m/s 586 mmHg 58%
    22:00 +14°C° 0 mm 1 m/s 586 mmHg 59%
    23:00 +13°C° 0 mm 1 m/s 586 mmHg 61%

    Depois de amanhã, 24 Agosto, Sábado

    Tempo Temperatura Precipitação Vento Pressão Humidade
    00:00 +13°C° 0 mm 1 m/s 586 mmHg 63%
    01:00 +13°C° 0 mm 1 m/s 586 mmHg 62%
    02:00 +13°C° 0 mm 1 m/s 586 mmHg 61%
    03:00 +12°C° 0 mm 1 m/s 586 mmHg 60%
    04:00 +13°C° 0 mm 1 m/s 586 mmHg 58%
    05:00 +13°C° 0 mm 1 m/s 586 mmHg 57%
    06:00 +14°C° 0 mm 1 m/s 586 mmHg 56%
    07:00 +16°C° 0 mm 1 m/s 588 mmHg 47%
    08:00 +20°C° 0 mm 1 m/s 589 mmHg 38%
    09:00 +22°C° 0 mm 1 m/s 590 mmHg 29%
    10:00 +23°C° 0 mm 2 m/s 590 mmHg 31%
    11:00 +22°C° 0 mm 3 m/s 591 mmHg 32%
    12:00 +24°C° 0 mm 3 m/s 591 mmHg 33%
    13:00 +24°C° 0 mm 3 m/s 590 mmHg 34%
    14:00 +24°C° 0 mm 3 m/s 590 mmHg 35%
    15:00 +22°C° 0 mm 3 m/s 590 mmHg 36%
    16:00 +21°C° 0 mm 3 m/s 589 mmHg 43%
    17:00 +19°C° 0 mm 2 m/s 589 mmHg 49%
    18:00 +19°C° 0 mm 1 m/s 588 mmHg 56%
    19:00 +18°C° 0 mm 1 m/s 588 mmHg 56%
    20:00 +15°C° 0 mm 1 m/s 588 mmHg 56%
    21:00 +14°C° 0 mm 1 m/s 588 mmHg 56%
    22:00 +14°C° 0 mm 1 m/s 588 mmHg 55%
    23:00 +15°C° 0 mm 1 m/s 588 mmHg 54%

    25 Agosto, Domingo

    Tempo Temperatura Precipitação Vento Pressão Humidade
    00:00 +15°C° 0 mm 1 m/s 588 mmHg 53%
    01:00 +14°C° 0.1 mm 2 m/s 588 mmHg 57%
    02:00 +14°C° 0.1 mm 2 m/s 587 mmHg 61%
    03:00 +13°C° 0.1 mm 2 m/s 587 mmHg 65%
    04:00 +13°C° 0 mm 2 m/s 587 mmHg 64%
    05:00 +14°C° 0 mm 1 m/s 587 mmHg 63%
    06:00 +14°C° 0 mm 1 m/s 588 mmHg 62%
    07:00 +16°C° 0 mm 1 m/s 588 mmHg 55%
    08:00 +18°C° 0 mm 2 m/s 589 mmHg 48%
    09:00 +19°C° 0 mm 2 m/s 590 mmHg 41%
    10:00 +20°C° 0 mm 3 m/s 590 mmHg 41%
    11:00 +20°C° 0 mm 3 m/s 590 mmHg 41%
    12:00 +21°C° 0 mm 3 m/s 590 mmHg 41%
    13:00 +21°C° 0.1 mm 3 m/s 590 mmHg 42%
    14:00 +21°C° 0.1 mm 3 m/s 590 mmHg 42%
    15:00 +21°C° 0.1 mm 3 m/s 589 mmHg 43%
    16:00 +19°C° 0.1 mm 2 m/s 589 mmHg 49%
    17:00 +18°C° 0.1 mm 2 m/s 588 mmHg 54%
    18:00 +17°C° 0.1 mm 2 m/s 588 mmHg 59%
    19:00 +15°C° 0 mm 1 m/s 587 mmHg 60%
    20:00 +14°C° 0 mm 1 m/s 587 mmHg 60%
    21:00 +12°C° 0 mm 1 m/s 586 mmHg 60%
    22:00 +12°C° 0 mm 1 m/s 586 mmHg 60%
    23:00 +12°C° 0 mm 1 m/s 586 mmHg 59%

    26 Agosto, Segunda-feira

    Tempo Temperatura Precipitação Vento Pressão Humidade
    00:00 +12°C° 0 mm 1 m/s 586 mmHg 59%
    01:00 +12°C° 0 mm 1 m/s 586 mmHg 60%
    02:00 +12°C° 0 mm 1 m/s 586 mmHg 60%
    03:00 +11°C° 0 mm 1 m/s 586 mmHg 60%
    04:00 +12°C° 0 mm 1 m/s 586 mmHg 61%
    05:00 +12°C° 0 mm 1 m/s 586 mmHg 62%
    06:00 +13°C° 0 mm 1 m/s 587 mmHg 63%
    07:00 +15°C° 0 mm 1 m/s 588 mmHg 58%
    08:00 +18°C° 0 mm 1 m/s 589 mmHg 53%
    09:00 +19°C° 0 mm 2 m/s 590 mmHg 49%
    10:00 +19°C° 0.2 mm 2 m/s 590 mmHg 49%
    11:00 +20°C° 0.2 mm 2 m/s 590 mmHg 49%
    12:00 +20°C° 0.2 mm 3 m/s 590 mmHg 49%
    13:00 +20°C° 0.4 mm 2 m/s 590 mmHg 51%
    14:00 +19°C° 0.4 mm 2 m/s 590 mmHg 53%
    15:00 +19°C° 0.4 mm 2 m/s 589 mmHg 55%
    16:00 +18°C° 0.2 mm 2 m/s 589 mmHg 61%
    17:00 +17°C° 0.2 mm 2 m/s 588 mmHg 67%
    18:00 +16°C° 0.2 mm 2 m/s 588 mmHg 73%
    19:00 +15°C° 0.4 mm 1 m/s 588 mmHg 75%
    20:00 +14°C° 0.4 mm 1 m/s 589 mmHg 77%
    21:00 +14°C° 0.4 mm 1 m/s 589 mmHg 79%
    22:00 +13°C° 0.1 mm 1 m/s 589 mmHg 79%
    23:00 +13°C° 0.1 mm 1 m/s 589 mmHg 80%

    27 Agosto, Terça-feira

    Tempo Temperatura Precipitação Vento Pressão Humidade
    00:00 +13°C° 0.1 mm 1 m/s 589 mmHg 81%
    01:00 +12°C° 0 mm 1 m/s 589 mmHg 83%
    02:00 +12°C° 0 mm 1 m/s 588 mmHg 84%
    03:00 +11°C° 0 mm 1 m/s 588 mmHg 86%
    04:00 +11°C° 0 mm 1 m/s 588 mmHg 86%
    05:00 +11°C° 0 mm 1 m/s 588 mmHg 86%
    06:00 +11°C° 0 mm 1 m/s 588 mmHg 85%
    07:00 +13°C° 0 mm 1 m/s 589 mmHg 77%
    08:00 +14°C° 0 mm 2 m/s 590 mmHg 70%
    09:00 +16°C° 0 mm 2 m/s 591 mmHg 62%
    10:00 +17°C° 0.1 mm 2 m/s 591 mmHg 61%
    11:00 +17°C° 0.1 mm 3 m/s 591 mmHg 60%
    12:00 +18°C° 0.1 mm 3 m/s 591 mmHg 60%
    13:00 +17°C° 0.2 mm 3 m/s 591 mmHg 61%
    14:00 +17°C° 0.2 mm 3 m/s 591 mmHg 63%
    15:00 +17°C° 0.2 mm 2 m/s 590 mmHg 65%
    16:00 +16°C° 0.1 mm 2 m/s 590 mmHg 68%
    17:00 +15°C° 0.1 mm 2 m/s 590 mmHg 71%
    18:00 +15°C° 0.1 mm 2 m/s 589 mmHg 74%
    19:00 +13°C° 0.1 mm 1 m/s 589 mmHg 77%
    20:00 +12°C° 0.1 mm 1 m/s 588 mmHg 79%
    21:00 +11°C° 0.1 mm 1 m/s 588 mmHg 81%
    22:00 +10°C° 0 mm 1 m/s 588 mmHg 80%
    23:00 +10°C° 0 mm 1 m/s 588 mmHg 79%
    Mostrar mais